Torna al catalogo

NIMBUS 2 DEB

AttivoLEO
NORAD 28206·DEBRIS·🇺🇸 United States

Lanciato May 15, 1966 da Vandenberg Space Force Base

Loading…

Prossimi Passaggi (prossime 24 ore)

TLE

AggiornatoSource: Space-Track

Epoca: Sep 13, 2026, 16:29 UTC

1 28206U 66040U   26256.68746387  .00001108  00000-0  18318-2 0  9997
2 28206 100.3707 152.1910 0041813 164.3910 254.7936 13.49166930103932

Traccia NIMBUS 2 DEB in tempo reale con AllMySat

Download on the App Store